Location: Dvur Kralove nad Labem
(50.4330°N, 15.8170°E)
Time: 20:54:13
(UTC+02:00)

ISS - Pass Details

Date: 24 May 2022
Orbit: 414 x 420 km, 51.6° (Epoch: 30 June)

Event Time Altitude Azimuth Distance (km) Brightness Sun altitude
Rises 22:20:52 0° 285° (WNW) 2,371 0.9 -11.1°
Reaches altitude 10° 22:22:58 10° 284° (WNW) 1,503 -0.2 -11.3°
Maximum altitude 22:26:21 77° 199° (SSW) 435 -3.8 -11.6°
Enters shadow 22:28:53 16° 114° (ESE) 1,169 -2.0 -11.9°
